Home   Weather   Olean   Past weeks
Flag for USA

Past Weather in Olean, New York, USA — Yesterday and Last 2 Weeks

Now
73 °F

Overcast.


Feels Like: 68 °F
Forecast: 88 / 69 °F
Wind: 5 mph from Southwest

Location: Olean Municipal

Current Time: Jul 19, 2019 at 10:35:14 am

Latest Report: Jul 19, 2019 at 9:55 am


Visibility: 10 mi

Pressure: 29.97 "Hg

Humidity: 100%

Dew Point: 73 °F

Location of OleanLocation

Past Weather in Olean — Graph

°F

Olean Temperature Yesterday

Maximum temperature yesterday: 79 °F (at 3:35 pm)
Minimum temperature yesterday: 63 °F (at 5:55 am)
Average temperature yesterday: 70 °F

High & Low Weather Summary for the Past Weeks

 TemperatureHumidityPressure
High82 °F (Jul 10, 2:15 pm)100% (Jul 4, 9:15 am)30.20 "Hg (Jul 4, 9:15 am)
Low52 °F (Jul 8, 3:55 am)40% (Jul 15, 8:55 pm)29.83 "Hg (Jul 11, 5:35 pm)
Average68 °F86%30.04 "Hg
* Reported Jul 4 9:15 am — Jul 19 9:15 am, Olean. Weather by CustomWeather, © 2019

Note: Actual official high and low records may vary slightly from our data, if they occured in-between our weather recording intervals... More about our weather records

Advertising

Olean Weather History for the Previous 24 Hours

Scroll right to see more
 ConditionsComfort  
Time TempWeatherWind HumidityBarometerVisibility
9:15 am
Fri, Jul 19
73 °FOvercast.7 mph100%29.96 "Hg10 mi
8:55 am73 °FOvercast.8 mph100%29.97 "Hg10 mi
8:35 am73 °FPartly sunny.8 mph100%29.96 "Hg10 mi
8:15 am73 °FPartly sunny.8 mph100%29.95 "Hg10 mi
7:55 am72 °FScattered clouds.7 mph100%29.96 "Hg10 mi
7:35 am72 °FScattered clouds.5 mph100%29.96 "Hg10 mi
6:55 am70 °FSunny.6 mph100%29.95 "Hg10 mi
6:35 am70 °FSunny.7 mph100%29.95 "Hg10 mi
5:55 am68 °FSunny.6 mph100%29.94 "Hg10 mi
5:35 am68 °FPassing clouds.7 mph100%29.94 "Hg10 mi
5:15 am68 °FPassing clouds.9 mph100%29.94 "Hg10 mi
4:55 am68 °FPassing clouds.8 mph100%29.94 "Hg10 mi
4:35 am68 °FClear.7 mph100%29.94 "Hg10 mi
4:15 am68 °FClear.8 mph100%29.94 "Hg10 mi
3:55 am66 °FClear.8 mph100%29.95 "Hg10 mi
3:35 am68 °FClear.9 mph100%29.95 "Hg10 mi
3:15 am68 °FClear.7 mph100%29.96 "Hg10 mi
2:55 am68 °FClear.8 mph100%29.96 "Hg10 mi
2:35 am68 °FClear.7 mph100%29.97 "Hg10 mi
2:15 am68 °FClear.5 mph100%29.97 "Hg10 mi
1:55 am68 °FClear.3 mph100%29.97 "Hg10 mi
1:15 am68 °FClear.3 mph100%29.97 "Hg10 mi
12:55 am68 °FClear.3 mph100%29.97 "Hg10 mi
12:35 am68 °FClear.3 mph100%29.97 "Hg10 mi
12:15 am68 °FClear.3 mph100%29.97 "Hg10 mi
11:55 pm
Thu, Jul 18
70 °FClear.5 mph100%29.97 "Hg10 mi
11:35 pm70 °FClear.5 mph100%29.97 "Hg10 mi
11:15 pm70 °FClear.3 mph100%29.97 "Hg10 mi
10:55 pm70 °FClear.3 mph100%29.98 "Hg10 mi
10:35 pm72 °FClear.5 mph100%29.97 "Hg10 mi
10:15 pm72 °FClear.3 mph100%29.97 "Hg10 mi
9:55 pm72 °FClear.3 mph100%29.97 "Hg10 mi
9:35 pm72 °FPassing clouds.3 mph100%29.97 "Hg10 mi
9:15 pm70 °FPassing clouds.No wind100%29.97 "Hg10 mi
8:55 pm72 °FClear.No wind94%29.95 "Hg10 mi
8:15 pm73 °FSunny.No wind89%29.94 "Hg10 mi
7:55 pm73 °FSunny.No wind89%29.95 "Hg10 mi
7:35 pm77 °FSunny.No wind74%29.95 "Hg10 mi
7:15 pm77 °FSunny.No wind79%29.95 "Hg10 mi
6:55 pm77 °FScattered clouds.No wind79%29.96 "Hg10 mi
6:35 pm77 °FSunny.No wind79%29.97 "Hg10 mi
6:15 pm77 °FScattered clouds.3 mph74%29.97 "Hg10 mi
5:55 pm77 °FPartly sunny.3 mph74%29.97 "Hg10 mi
5:35 pm79 °FScattered clouds.No wind70%29.97 "Hg10 mi
5:15 pm77 °FBroken clouds.No wind74%29.97 "Hg10 mi
4:55 pm75 °FBroken clouds.No wind78%29.99 "Hg10 mi
4:35 pm77 °FScattered clouds.3 mph74%29.99 "Hg10 mi
4:15 pm77 °FBroken clouds.3 mph74%30.00 "Hg10 mi
3:55 pm77 °FBroken clouds.5 mph69%30.01 "Hg10 mi
3:35 pm79 °FScattered clouds.6 mph70%30.01 "Hg10 mi
3:15 pm77 °FBroken clouds.3 mph65%30.01 "Hg10 mi
2:55 pm77 °FMostly cloudy.5 mph74%30.01 "Hg10 mi
2:35 pm75 °FScattered clouds.6 mph78%30.01 "Hg10 mi
1:55 pm75 °FSunny.5 mph89%30.01 "Hg10 mi
1:35 pm73 °FScattered clouds.6 mph94%30.01 "Hg10 mi
1:15 pm73 °FBroken clouds.5 mph94%30.00 "Hg10 mi
12:55 pm72 °FMore clouds than sun.No wind100%30.01 "Hg10 mi
12:35 pm72 °FOvercast.No wind100%30.02 "Hg10 mi
12:15 pm72 °FMore clouds than sun.3 mph100%30.01 "Hg10 mi
11:55 am72 °FMore clouds than sun.No wind100%30.01 "Hg10 mi
11:35 am70 °FMostly cloudy.No wind100%30.02 "Hg10 mi
11:15 am70 °FMostly cloudy.No wind100%30.03 "Hg10 mi
10:55 am70 °FCloudy.3 mph100%30.03 "Hg10 mi
10:35 am70 °FOvercast.No wind100%30.03 "Hg10 mi
10:15 am68 °FOvercast.No wind100%30.02 "Hg10 mi
Weather by CustomWeather, © 2019

See weather overview